Regional Weather Roundup
Issued by NWS

Home | Current Version | Previous Version | Text Only | Print | Product List | Glossary Off
Versions: 1 2 3 4 5 6 7 8 9 10 11 12 13 14 15 16 17 18 19 20 21 22 23 24 25 26 27 28 29 30 31 32 33 34 35 36 37 38 39 40 41 42 43 44 45 46 47 48 49 50

000
ASUS43 KFSD 200702
RWRSD

WEATHER ROUNDUP FOR SOUTH DAKOTA
NATIONAL WEATHER SERVICE SIOUX FALLS SD
200 AM CDT WED SEP 20 2017

NOTE: "FAIR" INDICATES FEW OR NO CLOUDS BELOW 12,000 FEET WITH NO
SIGNIFICANT WEATHER AND/OR OBSTRUCTIONS TO VISIBILITY.


SDZ001>005-009-010-012>017-200800-
NORTHWEST AND NORTH CENTRAL SOUTH DAKOTA

CITY           SKY/WX    TMP DP  RH WIND       PRES   REMARKS
BUFFALO          N/A     42  40  92 SW10      29.63S
MOBRIDGE       CLOUDY    52  46  80 NW14G23   29.62R
$$

SDZ012>016-024>037-041>051-057-063-072>074-200800-
SOUTHWEST AND SOUTH CENTRAL SOUTH DAKOTA

CITY           SKY/WX    TMP DP  RH WIND       PRES   REMARKS
RAPID CTY ARPT NOT AVBL
PIERRE         CLOUDY    56  44  64 NW15      29.67R
CUSTER         CLEAR     34  24  67 S7        29.80R WCI  28
ELLSWORTH AFB  CLEAR     41  41 100 W8        29.75R
PHILIP         CLOUDY    47  45  93 W9        29.71S
SPEARFISH      FAIR      43  30  61 SW6       29.75S
WINNER         FAIR      53  48  83 NW6       29.73R
$$

SDZ004>011-016>023-039-040-200800-
NORTHEAST SOUTH DAKOTA

CITY           SKY/WX    TMP DP  RH WIND       PRES   REMARKS
ABERDEEN       CLOUDY    58  53  84 W13       29.61R
WATERTOWN      CLOUDY    60  55  83 NE3       29.58R
BROOKINGS      MOCLDY    61  54  77 CALM      29.62S
SISSETON         N/A     61  58  90 NW6       29.52R
$$

SDZ017-020-022-023-036>040-048>070-200800-
SOUTHEAST SOUTH DAKOTA

CITY           SKY/WX    TMP DP  RH WIND       PRES   REMARKS
SIOUX FALLS    CLOUDY    63  63 100 NW3       29.64R
HURON          CLOUDY    59  55  87 W10       29.63R
CHAMBERLAIN    PTCLDY    58  52  80 W12       29.71R
MITCHELL       CLOUDY    61  55  81 W7        29.67R
YANKTON        CLOUDY    61  57  87 W3        29.68R
$$

ABBREVIATIONS USED IN REMARKS
   TC - TEMPERATURE IN CELSIUS
  WCI - WIND CHILL INDEX
   HX - HEAT INDEX
  VSB - VISIBILITY





USA.gov is the U.S. government's official web portal to all federal, state and local government web resources and services.